When you browse on this site, cookies collect data to enhance your experience and personalize the content and advertising you see.
Visit our Privacy Policy to learn more. By continuing to use the site, you agree to this use of cookies and data.
  • In Hungary
  • List of Countries
  • For 7 days
  • Water Temperature
  • Satellite Maps
  • Weather Map
  • News
  • Weather Widgets
  • user-avatar
    Login

    Hourly Weather Kolno

    Today, 21 March, Thursday

    Time Temperature Precipitation Wind Pressure Humidity
    00:00 +5°C° 0 mm 5 mps 759 mmHg 67%
    01:00 +5°C° 0 mm 4 mps 758 mmHg 74%
    02:00 +5°C° 0 mm 4 mps 758 mmHg 80%
    03:00 +5°C° 0 mm 4 mps 758 mmHg 85%
    04:00 +4°C° 0 mm 4 mps 759 mmHg 90%
    05:00 +4°C° 0 mm 4 mps 759 mmHg 90%
    06:00 +5°C° 0 mm 4 mps 759 mmHg 89%
    07:00 +5°C° 0 mm 4 mps 759 mmHg 87%
    08:00 +6°C° 0 mm 4 mps 759 mmHg 80%
    09:00 +6°C° 0 mm 4 mps 759 mmHg 72%
    10:00 +7°C° 0 mm 5 mps 760 mmHg 64%
    11:00 +8°C° 0 mm 5 mps 759 mmHg 62%
    12:00 +9°C° 0 mm 5 mps 759 mmHg 60%
    13:00 +11°C° 0 mm 4 mps 759 mmHg 58%
    14:00 +11°C° 0 mm 4 mps 759 mmHg 59%
    15:00 +11°C° 0 mm 4 mps 759 mmHg 60%
    16:00 +10°C° 0 mm 5 mps 759 mmHg 62%
    17:00 +11°C° 0 mm 4 mps 759 mmHg 67%
    18:00 +10°C° 0 mm 4 mps 758 mmHg 72%
    19:00 +10°C° 0 mm 4 mps 758 mmHg 77%
    20:00 +9°C° 0.1 mm 5 mps 758 mmHg 79%
    21:00 +9°C° 0.1 mm 5 mps 758 mmHg 82%
    22:00 +9°C° 0.1 mm 5 mps 758 mmHg 85%
    23:00 +9°C° 0.1 mm 5 mps 758 mmHg 85%

    Tomorrow, 22 March, Friday

    Time Temperature Precipitation Wind Pressure Humidity
    00:00 +8°C° 0.1 mm 5 mps 758 mmHg 86%
    01:00 +8°C° 0.1 mm 5 mps 758 mmHg 86%
    02:00 +8°C° 0 mm 5 mps 758 mmHg 86%
    03:00 +8°C° 0 mm 5 mps 758 mmHg 87%
    04:00 +8°C° 0 mm 5 mps 758 mmHg 87%
    05:00 +8°C° 0 mm 5 mps 759 mmHg 87%
    06:00 +7°C° 0 mm 5 mps 759 mmHg 86%
    07:00 +7°C° 0 mm 4 mps 760 mmHg 86%
    08:00 +8°C° 0 mm 5 mps 760 mmHg 79%
    09:00 +9°C° 0 mm 5 mps 761 mmHg 72%
    10:00 +9°C° 0 mm 6 mps 761 mmHg 65%
    11:00 +10°C° 0 mm 5 mps 761 mmHg 54%
    12:00 +10°C° 0 mm 5 mps 762 mmHg 44%
    13:00 +10°C° 0 mm 5 mps 762 mmHg 34%
    14:00 +10°C° 0 mm 5 mps 762 mmHg 34%
    15:00 +10°C° 0 mm 5 mps 762 mmHg 35%
    16:00 +10°C° 0 mm 4 mps 762 mmHg 35%
    17:00 +8°C° 0 mm 4 mps 762 mmHg 41%
    18:00 +7°C° 0 mm 3 mps 762 mmHg 47%
    19:00 +6°C° 0 mm 2 mps 762 mmHg 53%
    20:00 +5°C° 0 mm 2 mps 762 mmHg 55%
    21:00 +5°C° 0 mm 1 mps 762 mmHg 58%
    22:00 +5°C° 0 mm 1 mps 762 mmHg 61%
    23:00 +4°C° 0 mm 1 mps 762 mmHg 62%

    Day after tomorrow, 23 March, Saturday

    Time Temperature Precipitation Wind Pressure Humidity
    00:00 +4°C° 0 mm 1 mps 762 mmHg 62%
    01:00 +4°C° 0 mm 1 mps 762 mmHg 63%
    02:00 +3°C° 0 mm 1 mps 761 mmHg 63%
    03:00 +3°C° 0 mm 1 mps 761 mmHg 63%
    04:00 +3°C° 0 mm 1 mps 760 mmHg 63%
    05:00 +2°C° 0 mm 2 mps 760 mmHg 62%
    06:00 +3°C° 0 mm 2 mps 760 mmHg 61%
    07:00 +3°C° 0 mm 2 mps 760 mmHg 59%
    08:00 +4°C° 0 mm 3 mps 760 mmHg 54%
    09:00 +7°C° 0 mm 3 mps 759 mmHg 49%
    10:00 +9°C° 0 mm 3 mps 759 mmHg 45%
    11:00 +10°C° 0 mm 4 mps 758 mmHg 45%
    12:00 +11°C° 0 mm 4 mps 758 mmHg 46%
    13:00 +13°C° 0 mm 4 mps 757 mmHg 47%
    14:00 +13°C° 0 mm 4 mps 756 mmHg 50%
    15:00 +13°C° 0 mm 4 mps 756 mmHg 54%
    16:00 +14°C° 0 mm 4 mps 755 mmHg 58%
    17:00 +12°C° 0 mm 4 mps 755 mmHg 65%
    18:00 +11°C° 0 mm 3 mps 755 mmHg 72%
    19:00 +10°C° 0 mm 3 mps 755 mmHg 79%
    20:00 +10°C° 0.1 mm 4 mps 755 mmHg 82%
    21:00 +8°C° 0.1 mm 4 mps 755 mmHg 85%
    22:00 +8°C° 0.1 mm 5 mps 755 mmHg 88%
    23:00 +7°C° 0 mm 5 mps 755 mmHg 85%

    24 March, Sunday

    Time Temperature Precipitation Wind Pressure Humidity
    00:00 +6°C° 0 mm 4 mps 755 mmHg 82%
    01:00 +4°C° 0 mm 4 mps 755 mmHg 79%
    02:00 +4°C° 0 mm 4 mps 755 mmHg 77%
    03:00 +3°C° 0 mm 4 mps 755 mmHg 76%
    04:00 +1°C° 0 mm 4 mps 756 mmHg 75%
    05:00 +1°C° 0 mm 4 mps 756 mmHg 75%
    06:00 +1°C° 0 mm 4 mps 756 mmHg 74%
    07:00 +1°C° 0 mm 4 mps 756 mmHg 74%
    08:00 +3°C° 0 mm 4 mps 756 mmHg 68%
    09:00 +5°C° 0 mm 4 mps 756 mmHg 61%
    10:00 +6°C° 0 mm 4 mps 757 mmHg 54%
    11:00 +6°C° 0 mm 5 mps 756 mmHg 52%
    12:00 +7°C° 0 mm 5 mps 756 mmHg 49%
    13:00 +8°C° 0 mm 5 mps 756 mmHg 46%
    14:00 +7°C° 0 mm 6 mps 756 mmHg 48%
    15:00 +7°C° 0 mm 6 mps 756 mmHg 49%
    16:00 +5°C° 0 mm 6 mps 756 mmHg 51%
    17:00 +5°C° 0 mm 5 mps 756 mmHg 55%
    18:00 +4°C° 0 mm 4 mps 756 mmHg 60%
    19:00 +2°C° 0 mm 3 mps 756 mmHg 65%
    20:00 +2°C° 0 mm 3 mps 756 mmHg 71%
    21:00 +1°C° 0 mm 3 mps 756 mmHg 76%
    22:00 +1°C° 0 mm 2 mps 756 mmHg 82%
    23:00 +1°C° 0 mm 2 mps 756 mmHg 85%

    25 March, Monday

    Time Temperature Precipitation Wind Pressure Humidity
    00:00 +1°C° 0 mm 2 mps 756 mmHg 88%
    01:00 -1°C° 0 mm 2 mps 755 mmHg 91%
    02:00 -1°C° 0 mm 2 mps 755 mmHg 91%
    03:00 -1°C° 0 mm 2 mps 755 mmHg 91%
    04:00 -1°C° 0 mm 2 mps 754 mmHg 91%
    05:00 0°C° 0 mm 3 mps 754 mmHg 87%
    06:00 0°C° 0 mm 4 mps 753 mmHg 84%
    07:00 0°C° 0 mm 4 mps 753 mmHg 81%
    08:00 +2°C° 0 mm 5 mps 752 mmHg 72%
    09:00 +3°C° 0 mm 6 mps 752 mmHg 63%
    10:00 +5°C° 0 mm 6 mps 751 mmHg 55%
    11:00 +4°C° 0.4 mm 7 mps 750 mmHg 59%
    12:00 +4°C° 0.4 mm 7 mps 750 mmHg 64%
    13:00 +3°C° 0.4 mm 7 mps 749 mmHg 68%
    14:00 +3°C° 0.5 mm 7 mps 748 mmHg 69%
    15:00 +3°C° 0.5 mm 7 mps 748 mmHg 70%
    16:00 +3°C° 0.5 mm 7 mps 748 mmHg 71%
    17:00 +2°C° 0.1 mm 6 mps 748 mmHg 73%
    18:00 +1°C° 0.1 mm 5 mps 748 mmHg 75%
    19:00 +1°C° 0.1 mm 3 mps 748 mmHg 77%
    20:00 +1°C° 0 mm 3 mps 748 mmHg 79%
    21:00 0°C° 0 mm 3 mps 748 mmHg 81%
    22:00 0°C° 0 mm 3 mps 748 mmHg 83%
    23:00 0°C° 0 mm 3 mps 748 mmHg 83%

    26 March, Tuesday

    Time Temperature Precipitation Wind Pressure Humidity
    00:00 0°C° 0 mm 3 mps 749 mmHg 84%
    01:00 +1°C° 0 mm 2 mps 749 mmHg 85%
    02:00 -1°C° 0 mm 3 mps 750 mmHg 87%
    03:00 -1°C° 0 mm 3 mps 750 mmHg 89%
    04:00 -2°C° 0 mm 3 mps 751 mmHg 91%
    05:00 -2°C° 0 mm 4 mps 752 mmHg 90%
    06:00 -1°C° 0 mm 4 mps 753 mmHg 88%
    07:00 -1°C° 0 mm 5 mps 754 mmHg 87%
    08:00 +1°C° 0 mm 5 mps 754 mmHg 81%
    09:00 +2°C° 0 mm 5 mps 755 mmHg 75%
    10:00 +3°C° 0 mm 5 mps 756 mmHg 70%
    11:00 +5°C° 0 mm 5 mps 756 mmHg 65%
    12:00 +6°C° 0 mm 5 mps 756 mmHg 59%
    13:00 +7°C° 0 mm 6 mps 756 mmHg 54%
    14:00 +5°C° 0 mm 6 mps 756 mmHg 57%
    15:00 +5°C° 0 mm 6 mps 756 mmHg 60%
    16:00 +4°C° 0 mm 6 mps 756 mmHg 63%
    17:00 +3°C° 0 mm 5 mps 756 mmHg 69%
    18:00 +1°C° 0 mm 4 mps 756 mmHg 76%
    19:00 +1°C° 0 mm 3 mps 757 mmHg 82%
    20:00 +1°C° 0 mm 3 mps 757 mmHg 83%
    21:00 0°C° 0 mm 3 mps 756 mmHg 84%
    22:00 0°C° 0 mm 3 mps 756 mmHg 84%
    23:00 +1°C° 0 mm 3 mps 756 mmHg 81%
    Show more